Location: Amsterdam
(30.7274°N, 84.4357°W)
Time: 00:13:41
(UTC+00:00)

Tiros 1 - Pass Details

Date: 22 February 2026
Orbit: 618 x 649 km, 48.4° (Epoch: 9 March)

Event Time Altitude Azimuth Distance (km) Brightness Sun altitude
Rises 19:44:41 0° 303° (WNW) 2,885 10.5 41.0°
Reaches altitude 10° 19:47:05 10° 296° (WNW) 1,976 9.9 40.7°
Maximum altitude 19:51:20 41° 227° (SW) 898 11.1 40.1°
Drops below altitude 10° 19:55:35 10° 157° (SSE) 1,969 10.0 39.5°
Sets 19:57:59 0° 150° (SSE) 2,874 10.7 39.2°
